This demonstration page uses our WeatherBlox Daily Observations layout. Learn more.

38.88101, -77.10428

Hourly Observations for January 21, 2016

Temp ( °F °C ) Dew Point ( °F °C ) Humidity (%) Winds ( mph kmh ) Pressure ( in mb ) Visibility ( mi km ) Precip ( " mm )
12:25 am 00:25 Cloudy with Light Snow 27 -3 23 -5 86 86 SW 3 6 30.15 1021 9 14.484096 0.001 0.001
12:52 am 00:52 Cloudy with Light Snow 27 -3 23 -5 86 86 WSW 5 7 30.15 1021 8 12.874752 0.001 0.001
1:52 am 01:52 Mostly Clear 27 -3 21 -6 80 80 NW 9 15 30.15 1021 10 16.09344 0.001 0.001
2:52 am 02:52 Clear 27 -3 16 -9 64 64 NW 14 22 30.18 1022 10 16.09344 0 0
3:52 am 03:52 Clear 25 -4 16 -9 69 69 WNW 9 15 30.21 1023 10 16.09344 0 0
4:52 am 04:52 Mostly Clear 25 -4 14 -10 63 63 NW 15 24 30.21 1023 10 16.09344 0 0
5:52 am 05:52 Clear 25 -4 14 -10 63 63 NW 10 17 30.24 1024 10 16.09344 0 0
6:52 am 06:52 Mostly Clear 25 -4 12 -11 59 59 WNW 13 20 30.27 1025 10 16.09344 0 0
7:52 am 07:52 Mostly Sunny 25 -4 12 -11 59 59 WNW 9 15 30.3 1026 10 16.09344 0 0
8:52 am 08:52 Mostly Sunny 27 -3 14 -10 59 59 WNW 14 22 30.33 1027 10 16.09344 0 0
9:52 am 09:52 Partly Cloudy 27 -3 16 -9 64 64 NW 15 24 30.33 1027 10 16.09344 0 0
10:52 am 10:52 Mostly Cloudy 28 -2 16 -9 59 59 NW 14 22 30.33 1027 10 16.09344 0 0
11:52 am 11:52 Cloudy 30 -1 18 -8 59 59 NW 9 15 30.33 1027 10 16.09344 0 0
12:52 pm 12:52 Cloudy 34 1 18 -8 51 51 WNW 18 30 30.3 1026 10 16.09344 0 0
1:52 pm 13:52 Cloudy 34 1 16 -9 48 48 NW 16 26 30.27 1025 10 16.09344 0 0
2:52 pm 14:52 Cloudy 34 1 12 -11 41 41 NW 15 24 30.27 1025 10 16.09344 0 0
3:52 pm 15:52 Mostly Cloudy 34 1 12 -11 41 41 NNW 12 19 30.27 1025 10 16.09344 0 0
4:52 pm 16:52 Partly Cloudy 32 0 12 -11 44 44 NW 13 20 30.27 1025 10 16.09344 0 0
5:52 pm 17:52 Partly Cloudy 30 -1 12 -11 47 47 NW 10 17 30.3 1026 10 16.09344 0 0
6:52 pm 18:52 Mostly Cloudy 30 -1 12 -11 47 47 NW 12 19 30.33 1027 10 16.09344 0 0
7:52 pm 19:52 Mostly Cloudy 28 -2 12 -11 51 51 NNW 9 15 30.33 1027 10 16.09344 0 0
8:52 pm 20:52 Partly Cloudy 28 -2 12 -11 51 51 NW 9 15 30.33 1027 10 16.09344 0 0
9:52 pm 21:52 Mostly Clear 28 -2 12 -11 51 51 NW 13 20 30.33 1027 10 16.09344 0 0
10:52 pm 22:52 Mostly Clear 27 -3 12 -11 54 54 NW 13 20 30.36 1028 10 16.09344 0 0
11:52 pm 23:52 Mostly Clear 27 -3 12 -11 54 54 NNW 13 20 30.33 1027 10 16.09344 0 0

Powered by AerisWeather